Temp
50 50 51 51 51 50 45 38 29 43 47 32 32 27 33 39 37 40 38 38 36 35 37 36 36 36 37 43 37 33 45 41 33 39 51 55 52 47 44 36 34 40 41 42
50 50 50 50 50 50 40 33 33 43 44 27 28 33 32 36 35 36 35 34 38 40 35 31 36 38 47 48 41 33 36 36 31 35 43 49 46 50 50 49 45 40 37 43
50 50 50 50 50 50 41 33 27 33 36 36 32 30 30 30 38 37 38 36 38 35 30 37 34 36 43 47 46 44 40 33 31 31 33 35 40 44 50 48 37 42 43 49
49 50 50 50 50 50 40 34 28 33 27 29 31 31 33 31 30 37 38 34 34 33 27 30 30 36 38 42 45 43 37 28 30 30 31 31 31 31 38 43 45 40 47 49
48 50 49 50 50 49 37 29 29 33 31 32 31 31 30 30 31 32 31 31 35 34 29 32 30 34 35 35 41 40 38 29 33 27 33 35 29 35 33 34 40 45 49 50
48 49 49 50 49 47 36 38 39 32 30 30 28 29 32 32 36 36 38 37 35 33 35 40 41 42 41 40 37 35 33 31 28 23 34 30 24 33 37 36 38 46 41 51
49 49 49 49 49 47 39 38 36 29 24 28 28 32 34 33 34 32 37 39 34 40 46 44 42 40 39 38 37 39 31 30 30 24 27 15 34 45 42 36 37 38 39 55
48 48 48 47 48 48 39 41 35 30 25 29 30 31 32 34 36 34 36 39 42 45 40 29 26 25 25 28 34 35 37 31 25 20 22 29 34 40 40 39 37 43 38 46
47 48 48 48 48 48 42 40 41 34 27 28 34 30 32 28 30 31 34 42 45 41 32 27 21 20 22 21 25 36 36 35 27 24 18 17 35 45 48 46 31 48 49 47
47 47 48 47 47 47 42 40 43 36 28 34 34 29 30 36 34 30 33 35 35 37 29 24 23 23 32 23 21 21 24 25 20 22 20 28 41 46 49 29 34 51 52 52
47 47 47 47 47 48 43 39 43 36 31 34 38 40 34 34 33 29 33 31 31 31 26 26 26 25 28 28 33 30 24 22 22 24 20 18 45 43 34 42 48 50 52 54
46 47 46 47 47 47 46 36 43 43 34 33 41 42 44 43 40 34 33 33 32 33 30 29 29 25 25 30 24 38 27 33 29 29 29 42 47 46 49 50 49 49 49 52
46 46 46 47 46 47 45 39 40 39 32 34 35 34 42 43 41 42 31 34 36 34 37 31 31 27 30 25 27 33 37 41 34 34 40 42 45 49 48 49 48 51 52 53
45 45 46 46 46 46 46 39 41 38 35 29 30 41 36 42 40 39 40 38 38 39 38 33 31 27 34 31 35 33 38 37 36 36 41 44 46 48 49 50 51 52 54 52
45 45 46 46 46 47 44 41 40 41 35 28 29 36 40 39 39 38 39 38 36 35 33 32 30 33 32 33 31 30 38 37 32 32 43 42 44 49 51 48 49 51 51 51
44 44 46 46 46 47 38 32 36 39 40 32 25 34 35 36 36 36 34 35 34 35 34 32 33 36 34 29 29 39 41 42 43 40 47 47 48 49 51 49 50 52 51 51
44 45 45 46 46 41 33 33 38 42 39 32 27 27 34 36 35 34 34 34 34 35 33 31 32 33 34 30 27 38 41 43 44 46 45 41 45 43 49 50 51 51 50 50
45 45 46 46 45 44 38 40 43 43 36 35 28 27 30 35 30 30 34 31 32 32 31 32 30 33 33 26 36 39 41 43 43 44 46 44 46 47 47 49 49 48 47 48
45 45 44 39 39 34 36 43 45 42 36 30 29 26 24 34 32 33 32 33 27 32 28 28 31 29 26 33 36 38 40 40 41 44 45 45 43 44 45 46 46 44 44 43
44 37 35 31 35 44 42 36 33 32 32 32 29 32 28 32 31 30 29 31 27 24 29 31 27 29 37 40 41 40 39 40 41 37 36 39 39 42 43 44 46 44 43 41
33 31 31 37 41 37 31 26 28 29 27 31 32 31 29 34 28 28 31 28 28 22 27 27 26 26 33 37 36 37 38 38 38 39 41 44 43 43 43 43 41 40 38 37
35 36 37 36 33 31 26 25 29 27 27 30 29 30 31 32 34 29 31 27 27 22 31 25 22 30 34 35 34 35 36 36 36 38 38 41 43 45 43 41 39 36 36 34
39 34 31 29 26 22 22 18 25 24 29 30 30 28 30 31 32 29 29 25 23 31 23 22 28 33 34 34 34 34 36 35 36 39 40 42 43 43 38 33 33 33 33 34
30 28 17 22 18 21 25 27 27 31 30 30 29 29 28 30 28 29 23 28 28 21 19 22 30 31 32 33 33 31 31 31 31 32 40 39 36 33 33 33 33 32 32 32
28 29 19 21 26 27 27 27 28 31 31 29 27 28 29 28 26 28 27 22 19 23 23 27 31 31 31 31 31 30 30 29 30 30 31 31 32 31 31 31 32 32 31 31
30 29 25 24 23 21 26 29 29 32 31 32 31 28 26 25 27 25 22 23 20 23 27 30 32 32 32 31 31 30 30 30 29 30 29 28 28 28 29 30 31 31 31 30
28 23 26 24 27 28 27 31 31 31 29 26 27 21 24 28 24 24 22 18 21 24 25 31 31 31 30 31 31 30 30 29 29 30 30 29 30 30 28 26 27 27 28 28
MSLP
1013.76 1013.51 1013.25 1013.03 1012.82 1012.53 1012.23 1012.17 1011.40 1009.74 1009.81 1009.86 1008.85 1007.77 1008.01 1007.51 1006.90 1006.61 1006.66 1006.35 1005.83 1005.27 1005.05 1004.57 1004.07 1003.31 1003.25 1003.16 1004.37 1003.90 1002.30 1001.09 1000.99 1000.18 999.65 999.38 999.24 999.35 1000.78 1000.76 1000.15 999.94 998.66 991.90
1013.22 1012.99 1012.78 1012.62 1012.48 1012.33 1012.60 1012.18 1011.09 1009.61 1009.53 1008.77 1008.25 1007.89 1007.54 1007.39 1007.12 1007.03 1006.86 1006.47 1006.03 1005.82 1005.84 1005.68 1004.64 1003.81 1002.84 1003.25 1003.95 1004.96 1004.71 1002.12 1001.40 1001.35 1001.09 1000.09 998.76 998.93 999.55 999.53 999.42 998.13 997.66 990.60
1012.65 1012.42 1012.22 1012.13 1012.04 1011.92 1012.40 1012.24 1011.00 1009.74 1008.93 1008.01 1008.01 1007.72 1006.92 1006.60 1006.41 1006.42 1006.46 1006.17 1006.30 1006.37 1006.50 1006.20 1005.19 1004.15 1002.94 1003.00 1003.21 1003.65 1004.82 1004.30 1003.07 1002.02 1001.96 1001.75 1000.21 999.17 998.99 998.51 998.78 996.23 995.50 990.98
1012.03 1011.80 1011.58 1011.55 1011.54 1011.48 1012.07 1011.85 1010.85 1009.80 1008.85 1008.24 1007.81 1007.59 1006.26 1005.96 1005.95 1005.86 1005.75 1005.38 1006.21 1006.63 1006.53 1006.00 1004.63 1003.68 1003.12 1003.31 1003.80 1004.22 1004.70 1004.34 1004.21 1004.01 1003.47 1002.94 1002.53 1001.36 1000.03 998.56 997.36 996.68 992.70 992.03
1011.32 1011.12 1011.01 1010.92 1010.97 1011.03 1011.60 1011.38 1010.73 1009.86 1008.99 1008.24 1007.78 1006.72 1005.42 1005.52 1005.57 1005.42 1004.64 1004.83 1005.51 1005.61 1004.74 1003.05 1003.45 1004.36 1004.25 1003.78 1003.69 1003.90 1004.63 1004.09 1003.95 1003.25 1003.37 1003.71 1002.75 1001.56 1000.97 999.97 998.14 997.00 993.72 991.70
1010.60 1010.49 1010.34 1010.20 1010.33 1010.56 1010.73 1010.18 1009.99 1010.03 1008.52 1007.70 1006.97 1005.93 1005.18 1004.86 1004.87 1004.09 1003.97 1004.58 1004.69 1003.32 999.94 1004.10 1003.55 1004.12 1003.93 1003.67 1003.87 1004.28 1004.70 1004.42 1004.70 1004.01 1004.10 1003.48 1002.45 1000.40 1000.13 999.57 998.78 996.76 994.64 990.06
1009.81 1009.67 1009.60 1009.53 1009.58 1009.78 1010.10 1009.76 1009.85 1009.30 1007.60 1007.46 1006.48 1005.58 1005.22 1004.65 1004.08 1003.43 1003.30 1003.57 1003.07 999.57 1003.00 1002.97 1003.29 1003.50 1003.59 1003.69 1003.73 1003.98 1004.26 1004.61 1004.67 1003.14 1003.43 1002.26 1000.07 999.82 999.62 999.17 998.62 997.78 996.13 991.52
1009.17 1008.99 1008.90 1008.76 1008.71 1008.72 1009.06 1008.83 1009.09 1008.25 1006.83 1006.39 1005.33 1004.83 1004.61 1004.14 1003.21 1002.50 1001.99 1001.53 1000.49 1001.07 1002.22 1002.84 1003.06 1003.43 1003.79 1002.39 1002.66 1003.01 1003.35 1003.93 1004.03 1003.46 1002.47 1000.54 999.05 999.03 998.92 998.15 996.48 997.26 996.66 993.60
1008.47 1008.22 1008.07 1007.82 1007.73 1007.73 1007.89 1007.63 1007.87 1007.42 1006.24 1004.20 1004.27 1003.84 1003.67 1003.24 1002.30 1001.31 1000.35 1000.11 999.88 1000.45 1000.80 1001.19 1001.21 1001.30 1001.59 1001.87 1001.48 1001.03 1002.08 1002.77 1003.72 1003.01 1001.39 999.16 996.59 996.82 997.31 997.52 995.59 995.07 995.45 993.73
1007.75 1007.51 1007.18 1006.92 1006.82 1006.77 1006.83 1006.42 1006.74 1006.55 1005.14 1002.93 1003.44 1002.53 1002.02 1002.11 1001.68 1000.61 999.74 999.14 998.67 998.92 999.19 999.61 999.77 999.77 999.54 999.82 999.76 1000.39 1001.27 1001.92 1001.72 1001.11 1000.50 998.10 995.76 995.91 996.12 995.96 994.36 993.43 993.95 993.08
1006.94 1006.69 1006.45 1006.22 1005.97 1005.77 1005.75 1005.16 1005.27 1005.07 1003.87 1001.81 1001.85 1001.08 1001.07 1000.69 1000.81 999.95 999.54 999.35 998.58 998.29 998.31 998.66 998.55 998.55 998.49 998.44 997.75 997.84 998.70 999.67 999.62 999.55 998.87 997.08 994.26 995.01 995.29 993.76 991.64 991.82 992.01 991.15
1006.11 1005.84 1005.57 1005.25 1004.90 1004.81 1004.64 1003.85 1003.54 1003.36 1002.35 1000.66 1000.01 999.64 999.38 999.55 999.72 999.77 999.12 998.38 997.97 997.43 997.50 997.76 997.74 997.77 997.62 996.85 996.41 996.65 996.46 995.86 996.33 996.92 995.72 994.25 992.16 992.45 992.24 992.18 991.63 992.01 992.08 991.60
1005.38 1005.01 1004.68 1004.28 1004.04 1003.80 1003.57 1002.58 1001.92 1001.38 1000.73 1000.01 999.60 998.64 998.27 998.63 998.75 998.68 998.48 997.69 997.29 997.12 996.91 997.10 997.05 996.75 996.49 996.10 995.39 995.31 994.80 994.87 994.97 994.90 993.22 992.29 991.00 992.00 991.90 991.37 990.76 991.03 991.33 991.41
1004.55 1004.19 1003.64 1003.38 1003.04 1002.56 1002.03 1001.30 1000.51 1000.28 1000.01 999.62 998.33 997.84 998.06 997.69 997.83 997.73 997.44 997.16 996.93 996.84 996.78 996.70 996.55 996.47 995.80 995.14 994.40 994.17 993.62 993.97 993.07 992.76 991.87 991.17 990.28 990.38 990.90 990.93 990.19 989.70 989.94 990.21
1003.71 1003.32 1002.77 1002.35 1001.90 1001.22 1000.52 999.92 999.38 999.28 999.65 999.18 998.37 997.59 997.13 997.31 997.25 996.92 996.81 996.74 996.60 996.47 996.46 996.20 996.09 995.95 995.81 995.11 994.81 993.23 992.88 992.29 992.42 990.60 990.40 990.57 989.06 989.12 989.45 989.42 989.11 988.96 988.94 988.59
1002.93 1002.49 1001.84 1001.42 1000.78 1000.26 1000.04 999.32 999.31 999.18 999.05 999.14 998.43 997.19 996.87 997.00 997.03 996.81 996.65 996.48 996.41 996.29 996.04 996.03 995.78 995.42 995.16 994.39 992.95 991.71 992.01 991.60 990.88 989.99 989.83 989.62 988.88 989.02 988.72 988.56 987.85 987.67 988.24 987.90
1002.01 1001.39 1000.95 1000.42 999.95 999.82 999.96 999.50 999.05 998.82 999.05 999.01 998.50 997.34 996.88 996.82 996.94 996.94 996.70 996.61 996.48 996.27 996.11 995.91 995.54 995.13 994.67 993.38 992.20 991.45 990.97 990.30 989.32 989.57 989.86 988.53 988.51 988.12 988.15 987.76 987.32 987.16 986.95 986.55
1000.95 1000.44 999.87 999.43 999.08 998.99 998.92 998.75 998.52 998.59 998.64 998.61 998.01 997.10 996.93 996.85 996.69 996.58 996.50 996.52 996.54 996.27 995.92 995.68 995.06 994.49 993.88 992.24 990.32 990.10 989.78 989.39 988.92 988.57 988.30 987.74 987.59 987.32 987.36 987.07 986.83 986.64 986.19 985.99
1000.06 999.46 998.94 998.93 998.68 998.75 998.60 998.41 998.31 998.39 998.54 997.88 997.39 996.86 996.73 996.75 996.38 996.35 996.27 996.16 996.01 995.92 995.57 995.19 994.85 993.75 992.25 989.80 989.82 989.57 989.18 988.90 988.24 987.64 987.30 987.10 986.98 986.44 985.95 986.04 985.75 985.72 985.61 985.83
999.54 999.39 999.04 998.91 998.89 998.54 998.52 998.24 998.22 997.88 997.78 997.47 996.82 996.50 996.31 996.53 996.15 995.93 996.02 995.72 995.51 995.25 994.57 994.58 993.99 991.93 990.40 989.98 989.79 989.60 989.06 988.47 988.07 987.29 986.43 986.34 985.84 985.57 984.99 984.91 984.88 984.79 985.23 985.84
1000.11 999.84 999.37 998.92 998.60 998.47 998.44 998.22 997.77 997.37 997.10 996.66 996.26 996.17 996.01 995.87 995.86 995.57 995.40 995.01 994.99 994.65 994.09 993.93 992.77 991.18 990.39 990.29 989.93 989.46 988.88 988.19 987.30 986.55 985.59 985.01 984.68 984.40 984.41 984.56 984.70 984.86 985.30 986.24
1000.08 1000.00 999.66 999.11 998.57 998.34 998.17 997.52 997.15 996.86 996.22 996.12 996.08 995.98 995.91 995.72 995.66 995.37 994.88 994.55 994.55 993.80 993.82 993.45 992.07 990.75 990.55 990.26 989.73 988.95 988.24 987.38 986.19 985.24 984.59 984.03 983.58 983.48 984.20 984.70 985.31 985.39 985.84 986.15
999.29 999.27 999.08 998.80 998.68 998.35 997.57 996.92 996.37 996.20 995.78 995.81 995.92 996.08 995.96 995.79 995.59 995.17 994.54 994.21 993.94 993.76 993.54 992.65 991.50 990.92 990.69 990.25 989.63 988.70 987.92 986.85 984.95 983.67 983.44 983.24 983.04 983.50 984.32 985.28 985.74 985.86 986.34 986.85
999.11 998.73 998.61 998.56 998.32 997.73 996.76 996.46 996.29 995.87 995.68 995.74 995.86 995.85 995.77 995.36 995.20 994.63 994.38 993.85 993.81 993.59 993.14 992.22 991.68 991.47 991.13 990.64 990.14 989.30 988.25 987.18 985.78 984.38 983.13 983.11 983.66 984.25 984.78 985.28 986.10 986.66 987.36 987.91
998.77 998.30 997.88 997.64 997.19 997.00 996.71 996.58 996.31 995.87 995.72 995.66 995.70 995.58 995.40 995.07 994.87 994.35 994.19 994.15 993.91 993.58 993.12 992.87 992.37 991.95 991.48 990.91 990.44 989.69 989.02 988.08 987.11 986.19 985.08 984.85 985.10 985.43 985.96 986.41 986.79 987.54 988.42 988.84
998.26 997.71 997.24 997.33 997.39 997.06 996.76 996.46 996.18 996.00 995.81 995.45 995.31 995.07 994.94 994.71 994.57 994.46 994.30 994.45 994.53 994.61 994.31 993.63 992.95 992.31 991.86 991.46 991.05 990.46 989.92 989.27 988.54 987.79 987.10 986.88 986.89 987.10 987.44 987.98 988.33 988.75 989.39 990.04
997.34 996.86 996.87 997.04 997.02 996.76 996.74 996.30 996.20 996.27 996.05 995.60 995.42 995.26 994.86 994.97 995.06 994.99 995.56 996.16 996.34 995.99 995.12 994.19 993.55 992.99 992.55 992.11 991.66 991.25 990.69 990.25 989.73 989.22 988.78 988.65 988.46 988.32 988.45 989.18 990.13 990.50 991.24 991.75
Wind_Speed
17 16 17 15 16 18 8 3 5 1 7 6 3 15 6 7 4 0 7 5 11 11 10 10 8 11 5 9 15 11 12 8 10 18 9 20 24 23 19 8 12 10 11 25
16 16 15 14 14 14 2 3 5 3 6 7 10 8 9 13 5 2 2 7 8 5 10 8 9 14 12 9 7 4 9 5 12 17 16 21 25 25 24 24 2 24 13 23
18 16 13 13 13 14 2 3 4 3 4 5 9 10 9 9 10 17 10 9 9 9 2 7 9 15 10 4 10 17 8 6 6 10 3 8 25 20 29 28 17 25 25 35
18 15 14 12 13 12 1 3 4 3 5 5 11 15 10 14 10 11 12 8 19 14 10 14 22 22 23 18 12 3 6 6 7 9 14 20 17 14 16 30 30 24 34 32
16 15 15 12 12 10 2 2 3 3 8 9 13 11 13 14 11 7 11 18 14 17 25 28 8 18 13 16 3 3 4 10 12 18 19 16 25 21 19 24 26 30 35 35
15 15 13 13 11 7 3 3 3 4 11 5 7 5 11 14 16 16 20 17 14 24 33 16 21 16 10 12 8 4 5 7 5 19 9 4 12 17 15 10 14 24 26 42
15 15 15 15 13 11 4 4 4 5 12 10 9 14 17 17 19 23 21 17 22 31 8 10 9 16 18 15 14 11 11 11 8 16 6 15 14 11 9 12 17 15 29 40
17 16 17 17 17 17 5 5 6 4 9 9 16 19 17 18 20 23 25 24 30 22 15 10 5 4 4 15 19 18 17 12 8 8 11 17 20 14 15 11 20 12 20 33
17 17 18 18 18 18 7 6 7 7 7 16 17 18 17 17 18 20 26 25 22 18 7 7 12 11 6 6 5 21 23 20 13 9 11 11 17 10 18 21 26 27 21 27
18 18 19 20 16 17 10 7 8 8 10 18 15 11 13 12 11 12 16 9 5 16 8 8 9 11 10 10 9 6 11 14 20 18 16 10 21 14 11 16 19 14 17 22
20 20 20 18 19 19 12 9 9 8 10 19 15 15 14 8 9 11 4 3 2 5 8 8 6 7 9 9 11 13 12 12 10 13 13 17 19 10 16 20 33 19 22 20
19 20 21 20 21 20 19 12 9 10 13 6 4 17 20 18 21 13 6 4 5 5 4 4 4 4 5 11 11 10 13 11 8 13 11 15 12 13 14 21 20 7 10 13
21 22 21 22 22 22 20 11 10 7 3 4 4 11 13 9 10 7 6 3 4 4 1 4 2 5 6 7 10 8 11 10 11 9 19 20 22 12 11 11 16 14 16 17
21 22 22 21 23 25 22 11 8 3 2 3 6 1 5 4 5 8 10 3 3 2 2 3 3 3 6 5 9 13 11 10 15 15 20 21 23 21 16 17 20 22 18 17
21 22 22 22 25 24 17 5 4 3 2 2 4 3 4 3 5 6 5 7 3 2 3 4 4 2 3 2 2 7 9 12 10 15 15 13 21 14 12 15 18 20 20 18
21 23 21 23 23 25 2 3 2 4 3 1 4 2 3 1 2 1 1 2 2 2 2 1 2 3 3 5 8 13 11 12 18 23 23 22 22 15 16 18 21 20 18 21
22 21 21 22 23 4 2 2 2 5 1 1 4 4 1 2 2 1 1 2 0 0 1 3 3 4 4 4 11 13 12 17 23 21 19 27 24 20 17 20 21 19 19 18
21 22 23 22 19 6 3 3 5 3 2 2 3 4 2 3 1 2 1 1 1 2 1 1 3 2 4 7 14 14 19 22 24 24 21 21 18 18 17 18 19 23 20 18
22 23 17 3 1 1 2 6 5 1 2 3 3 2 2 2 1 2 2 2 3 2 4 4 4 3 9 12 10 12 14 13 18 20 22 21 20 24 23 21 21 20 16 10
18 3 1 1 1 7 3 2 2 3 3 3 3 2 2 3 2 2 1 2 2 3 4 3 5 8 14 15 13 13 15 17 17 19 20 16 16 19 21 19 18 14 7 10
3 3 2 2 7 1 0 2 3 2 3 2 2 3 2 3 3 3 3 2 2 3 1 3 3 5 1 8 13 15 16 18 20 21 21 20 20 18 14 10 8 9 10 9
4 4 5 3 2 3 4 3 1 4 2 2 2 2 2 1 1 3 3 2 3 4 3 3 4 3 7 13 18 19 18 20 22 21 21 20 20 16 10 9 8 6 6 7
2 4 3 2 2 4 3 3 3 2 2 2 1 2 1 1 3 4 2 4 4 1 2 3 4 6 11 14 15 16 17 18 19 17 17 17 11 9 12 10 7 9 8 8
3 3 4 4 4 5 4 2 2 2 1 1 2 2 3 2 3 2 3 2 1 2 3 3 4 11 13 12 11 13 17 16 15 13 6 10 12 9 10 12 11 12 12 10
4 3 5 6 3 3 2 1 2 2 1 1 1 2 2 2 3 3 1 2 3 3 3 5 9 13 10 11 11 12 12 12 11 11 11 10 10 11 12 11 12 12 11 12
4 5 3 1 0 3 1 2 2 1 2 2 1 2 2 3 2 3 4 3 2 4 7 8 10 12 11 11 11 11 10 10 10 9 10 12 13 14 14 13 13 14 14 13
4 4 1 2 2 4 2 1 1 1 2 2 1 2 4 1 2 2 6 3 5 9 10 8 11 10 10 11 9 9 10 10 10 9 10 10 12 13 16 18 15 16 15 15
Wind_Direction
308 302 301 311 322 329 336 293 277 298 141 224 238 234 223 264 278 186 245 275 259 269 293 289 300 274 219 37 50 342 253 215 228 229 209 213 203 200 185 188 192 235 285 268
302 305 311 309 320 324 319 272 274 241 206 236 241 244 236 233 220 148 199 243 224 216 253 273 243 267 268 296 160 250 356 277 225 240 243 237 211 210 205 220 223 212 203 263
296 299 303 308 313 315 5 277 286 263 241 231 252 264 239 238 218 232 216 238 246 257 327 249 277 272 286 268 251 186 161 227 302 263 331 336 222 227 221 214 214 233 223 241
292 287 291 302 303 309 109 219 249 257 306 279 255 253 264 242 242 218 206 236 232 239 246 239 237 246 257 269 266 174 160 256 310 314 329 332 315 312 272 223 218 220 235 240
285 282 293 285 292 314 186 237 261 273 278 287 271 276 250 243 232 205 225 236 245 218 230 221 252 241 253 256 2 337 184 264 278 283 287 284 292 289 290 288 258 225 245 253
284 286 284 285 288 296 254 229 258 269 278 285 268 247 252 255 250 251 245 250 245 237 238 237 243 250 255 243 252 234 201 269 251 263 277 310 281 267 246 268 292 243 241 245
285 286 284 284 277 266 216 242 272 243 265 263 265 283 274 265 253 258 260 249 236 249 268 241 234 226 240 245 242 226 236 228 240 269 303 257 245 230 260 248 269 284 293 267
284 285 284 282 277 272 241 255 255 244 267 258 265 265 267 271 262 263 261 255 248 260 255 235 202 183 240 239 236 217 209 216 242 245 235 277 273 247 246 246 274 271 284 288
290 294 284 278 277 276 269 252 247 256 273 255 252 263 256 260 264 272 260 257 257 256 218 183 195 206 173 211 247 218 212 218 216 223 247 249 271 251 222 248 262 264 251 268
297 296 294 290 286 285 277 266 245 257 266 262 239 239 256 242 247 262 280 271 227 204 179 185 196 211 194 207 199 151 187 201 214 221 240 255 258 260 229 226 253 249 248 264
295 294 297 294 292 291 293 274 248 247 264 254 242 236 233 254 261 255 291 238 218 190 190 188 169 215 204 222 214 195 170 171 203 221 226 242 235 228 219 224 244 259 249 245
298 296 294 298 296 298 288 278 259 251 245 264 253 235 247 238 247 267 226 257 210 177 179 190 157 174 182 210 230 201 208 204 186 192 212 237 232 198 209 229 261 263 234 252
299 297 294 295 299 292 286 278 284 251 238 246 212 232 236 235 226 242 249 221 197 212 234 155 181 222 161 200 227 220 230 212 225 222 234 242 250 217 220 246 258 266 270 264
296 295 292 292 296 293 289 279 271 207 244 256 272 136 224 210 231 244 226 250 158 162 148 192 184 206 196 222 237 218 216 173 223 243 249 255 264 253 251 247 261 272 266 254
301 299 295 296 296 299 299 263 228 188 245 257 273 269 209 227 264 244 198 199 181 174 183 204 204 201 202 190 237 240 200 222 212 237 249 245 260 272 259 246 249 263 267 266
301 296 295 298 303 305 28 291 210 201 207 267 298 299 234 177 355 305 130 185 176 209 201 189 232 277 223 228 247 250 221 228 232 245 249 256 264 272 266 266 270 274 267 271
296 299 297 300 305 281 188 279 295 166 103 208 281 279 253 184 194 239 194 172 224 264 196 213 212 218 214 244 257 255 237 237 243 244 256 260 260 261 264 266 269 276 274 275
302 301 300 301 293 239 237 253 254 174 221 219 258 265 286 175 225 258 158 195 184 220 242 250 229 247 225 255 245 250 248 249 255 256 249 252 263 265 264 267 272 270 268 262
306 310 307 317 205 227 241 286 254 214 262 238 223 246 281 175 237 219 207 203 230 182 218 233 173 218 232 243 272 263 263 256 259 259 255 260 257 261 264 262 261 255 248 250
322 325 312 268 226 318 334 353 232 216 205 232 246 184 252 194 199 228 237 202 234 234 230 139 229 251 263 276 293 298 287 276 270 268 268 264 261 257 261 256 247 231 237 229
10 1 315 309 309 266 149 261 238 187 243 206 235 226 249 178 227 242 209 207 218 240 223 238 249 258 279 319 312 304 296 288 280 267 263 258 255 262 260 236 176 164 163 166
243 304 280 263 257 226 244 217 226 228 256 197 208 223 215 250 228 253 208 244 201 254 147 241 258 264 327 329 319 313 310 300 285 267 255 250 247 243 212 172 157 144 133 138
279 196 238 226 262 258 230 228 187 238 206 197 195 277 243 205 220 258 233 227 235 132 234 249 253 323 331 325 325 319 321 322 309 269 254 249 229 163 147 133 127 120 112 113
250 236 269 202 218 242 227 179 220 255 226 212 194 244 214 193 220 227 236 240 237 263 245 257 329 333 323 320 326 328 331 338 342 350 296 160 142 125 124 124 133 121 120 123
243 237 234 220 243 258 276 279 292 246 285 181 194 235 212 226 259 244 307 300 248 230 352 313 321 319 315 327 336 334 339 347 357 9 42 63 87 101 102 102 102 98 96 99
228 236 244 215 337 296 297 245 247 20 282 220 274 298 243 233 230 222 222 236 51 3 328 318 316 321 331 333 339 341 349 356 5 23 55 72 78 81 79 78 84 87 86 89
217 241 175 164 223 261 221 264 304 316 250 236 191 217 230 336 258 294 15 32 323 319 310 308 322 332 340 336 342 358 5 16 17 38 52 69 82 80 72 64 58 68 73 75